Date String (YYYY-MM-DD hh:mm:ss) UTC,Instrument flags,Ambient pressure (hPa),Sample flow (lpm),Bypass flow (lpm),Sample temperature (°C),Ambient temperature (°C),ASC tube jacket temperature (°C),LED temperature (°C),Box temperature (°C),Sample RH (%),Span deviation,Mass concentration (μg/m³),Mass concentration (μg/m³),Mass concentration (μg/m³)
DateTimeUTC,F1_M11,P_M11,Q1_M11,Q2_M11,T1_M11,T2_M11,T3_M11,T4_M11,T5_M11,U1_M11,ZSPAN_M11,X0_M11,X2_M11,X1_M11
2023-01-04 19:00:00,,0823.2,5.00,0.00,22.3,22.6,00.0,31.0,24.2,09.6,-000.0,0019.30,0014.03,0013.51
2023-01-04 19:01:00,,0823.1,5.00,0.00,22.4,22.7,00.0,31.1,24.4,09.5,0000.4,0020.17,0014.68,0014.19
2023-01-04 19:02:00,,0823.1,4.99,0.00,22.4,22.1,00.0,31.2,24.2,09.5,0000.5,0021.55,0015.78,0015.24
2023-01-04 19:03:00,,0823.1,5.01,0.00,22.3,21.7,00.0,31.2,24.1,10.2,0000.3,0023.42,0016.76,0016.19
2023-01-04 19:04:00,,0823.3,5.01,0.00,22.3,21.5,00.0,31.2,24.1,10.6,-000.1,0023.70,0017.12,0016.53
2023-01-04 19:05:00,,0823.3,5.00,0.00,22.3,21.3,00.0,31.2,24.0,10.7,-000.6,0024.80,0017.48,0016.83
2023-01-04 19:06:00,,0823.3,5.00,0.00,22.3,21.0,00.0,31.2,23.9,10.6,-000.4,0026.00,0018.40,0017.67
2023-01-04 19:07:00,,0823.2,5.00,0.00,22.3,20.9,00.0,31.2,23.9,10.8,-000.2,0027.43,0019.51,0018.72
2023-01-04 19:08:00,,0823.2,5.00,0.00,22.3,20.9,00.0,31.2,23.9,10.8,-000.2,0028.38,0020.23,0019.38
2023-01-04 19:09:00,,0823.4,5.02,0.00,22.3,20.9,00.0,31.2,23.9,10.9,-000.1,0029.11,0020.74,0019.89
2023-01-04 19:10:00,,0823.3,5.01,0.00,22.2,20.9,00.0,31.2,23.9,10.9,-000.2,0028.87,0020.79,0019.93
2023-01-04 19:11:00,,0823.2,4.99,0.00,22.2,20.8,00.0,31.2,23.9,10.9,-000.7,0028.65,0020.73,0019.86
2023-01-04 19:12:00,,0823.1,4.99,0.00,22.2,20.7,00.0,31.2,23.8,10.9,-001.0,0028.44,0020.70,0019.81
2023-01-04 19:13:00,,0823.2,5.00,0.00,22.2,20.6,00.0,31.1,23.8,10.9,-001.1,0028.41,0020.69,0019.80
2023-01-04 19:14:00,,0823.1,5.00,0.00,22.1,20.6,00.0,31.1,23.8,11.0,-000.9,0027.73,0020.70,0019.81
2023-01-04 19:15:00,,0823.1,5.00,0.00,22.1,20.7,00.0,31.1,23.9,10.9,-000.7,0028.38,0020.83,0019.94
2023-01-04 19:16:00,,0823.1,5.00,0.00,22.2,20.8,00.0,31.1,23.9,11.0,-000.8,0028.86,0020.79,0019.91
2023-01-04 19:17:00,,0823.1,5.02,0.00,22.2,20.9,00.0,31.1,23.9,11.1,-001.1,0028.92,0020.78,0019.91
2023-01-04 19:18:00,,0823.0,4.99,0.00,22.2,21.0,00.0,31.1,24.0,10.9,-001.4,0028.63,0020.71,0019.87
2023-01-04 19:19:00,,0823.1,5.00,0.00,22.2,21.1,00.0,31.1,24.0,10.4,-001.5,0028.23,0020.49,0019.67
2023-01-04 19:20:00,,0823.1,5.00,0.00,22.2,21.1,00.0,31.1,24.0,10.4,-001.7,0027.98,0020.30,0019.49
2023-01-04 19:21:00,,0823.0,4.99,0.00,22.3,21.1,00.0,31.1,24.0,10.1,-001.8,0027.43,0020.05,0019.24
2023-01-04 19:22:00,,0823.0,5.01,0.00,22.3,21.2,00.0,31.1,24.0,10.2,-001.6,0027.15,0019.82,0019.04
2023-01-04 19:23:00,,0823.0,5.00,0.00,22.3,21.2,00.0,31.1,24.0,09.5,-001.5,0026.95,0019.42,0018.67
2023-01-04 19:24:00,,0823.0,4.99,0.00,22.3,21.2,00.0,31.1,24.0,08.3,-001.6,0026.50,0018.42,0017.72
2023-01-04 19:25:00,,0823.0,5.00,0.00,22.3,21.1,00.0,31.1,24.0,08.7,-001.5,0025.35,0017.52,0016.85
2023-01-04 19:26:00,,0823.0,5.00,0.00,22.3,21.0,00.0,31.1,24.0,09.8,-001.5,0024.21,0016.92,0016.27
2023-01-04 19:27:00,,0823.0,5.00,0.00,22.2,20.8,00.0,31.1,23.9,08.9,-001.4,0022.51,0016.44,0015.83
2023-01-04 19:28:00,,0823.0,5.00,0.00,22.2,20.7,00.0,31.1,23.8,09.1,-001.2,0021.46,0015.86,0015.32
2023-01-04 19:29:00,,0823.0,5.00,0.00,22.2,20.6,00.0,31.1,23.8,09.0,-000.9,0020.92,0015.36,0014.83
2023-01-04 19:30:00,,0823.1,5.00,0.00,22.1,20.6,00.0,31.1,23.8,08.8,-000.9,0020.57,0014.97,0014.44
2023-01-04 19:31:00,,0823.1,5.01,0.00,22.1,20.6,00.0,31.1,23.8,08.5,-000.7,0019.94,0014.43,0013.92
2023-01-04 19:32:00,,0823.1,5.00,0.00,22.1,20.6,00.0,31.1,23.8,09.7,-000.4,0019.71,0014.19,0013.66
2023-01-04 19:33:00,,0823.1,5.01,0.00,22.1,20.6,00.0,31.1,23.8,10.1,-000.5,0019.97,0014.10,0013.57
2023-01-04 19:34:00,,0823.3,5.01,0.00,22.1,20.7,00.0,31.0,23.9,10.1,-000.9,0020.28,0014.24,0013.68
2023-01-04 19:35:00,,0823.3,5.00,0.00,22.1,20.8,00.0,31.0,23.9,10.6,-000.9,0020.65,0014.96,0014.35
2023-01-04 19:36:00,,0823.2,5.00,0.00,22.2,20.9,00.0,31.0,24.0,10.7,-001.4,0021.33,0015.58,0014.94
2023-01-04 19:37:00,,0823.1,5.00,0.00,22.2,21.0,00.0,31.0,24.0,11.2,-001.1,0021.52,0015.75,0015.12
2023-01-04 19:38:00,,0823.1,5.00,0.00,22.2,21.0,00.0,31.0,24.0,11.2,-000.9,0021.45,0015.99,0015.35
2023-01-04 19:39:00,,0823.2,4.99,0.00,22.2,21.1,00.0,31.1,24.0,11.2,-001.2,0021.56,0016.28,0015.61
2023-01-04 19:40:00,,0823.1,4.99,0.00,22.2,21.1,00.0,31.1,24.1,11.0,-001.4,0021.88,0016.51,0015.83
2023-01-04 19:41:00,,0823.0,5.00,0.00,22.2,21.0,00.0,31.1,24.1,11.2,-001.2,0023.12,0016.89,0016.21
2023-01-04 19:42:00,,0823.0,5.00,0.00,22.2,20.9,00.0,31.1,24.1,11.1,-001.3,0024.25,0017.56,0016.86
2023-01-04 19:43:00,,0823.0,5.00,0.00,22.2,20.8,00.0,31.1,24.0,11.1,-001.3,0024.69,0018.00,0017.30
2023-01-04 19:44:00,,0822.9,5.00,0.00,22.2,20.8,00.0,31.1,24.0,11.1,-000.9,0024.55,0018.25,0017.55
2023-01-04 19:45:00,,0822.9,5.00,0.00,22.2,20.8,00.0,31.1,24.0,11.0,-000.5,0024.36,0018.44,0017.74
2023-01-04 19:46:00,,0823.0,5.01,0.00,22.2,20.9,00.0,31.0,24.0,10.4,-000.5,0024.47,0018.42,0017.74
2023-01-04 19:47:00,,0823.1,5.00,0.00,22.2,21.0,00.0,31.0,24.0,11.0,-000.4,0025.52,0018.43,0017.71
2023-01-04 19:48:00,,0823.2,5.00,0.00,22.2,21.0,00.0,31.0,24.0,10.8,-000.7,0025.76,0018.41,0017.70
2023-01-04 19:49:00,,0823.1,5.01,0.00,22.3,21.1,00.0,31.1,24.0,10.2,-000.9,0025.70,0018.30,0017.60
2023-01-04 19:50:00,,0823.1,5.01,0.00,22.3,21.2,00.0,31.1,24.1,09.4,-000.7,0025.42,0018.02,0017.33
2023-01-04 19:51:00,,0823.1,5.01,0.00,22.3,21.2,00.0,31.1,24.1,09.5,-000.6,0025.08,0017.77,0017.08
2023-01-04 19:52:00,,0823.2,5.00,0.00,22.3,21.3,00.0,31.1,24.1,10.6,-000.7,0024.13,0017.70,0017.01
2023-01-04 19:53:00,,0823.1,5.00,0.00,22.4,21.3,00.0,31.1,24.2,10.4,-000.5,0023.54,0017.53,0016.81
2023-01-04 19:54:00,,0823.2,4.99,0.00,22.4,21.4,00.0,31.1,24.2,09.5,-000.3,0023.16,0017.11,0016.40
2023-01-04 19:55:00,,0823.2,5.01,0.00,22.4,21.4,00.0,31.1,24.2,09.0,-000.8,0022.59,0016.50,0015.81
2023-01-04 19:56:00,,0823.3,5.01,0.00,22.5,21.4,00.0,31.2,24.2,09.1,-001.2,0022.01,0015.98,0015.29
2023-01-04 19:57:00,,0823.2,5.00,0.00,22.5,21.4,00.0,31.2,24.3,09.1,-001.2,0021.51,0015.56,0014.89
2023-01-04 19:58:00,,0823.2,4.99,0.00,22.5,21.5,00.0,31.2,24.3,09.1,-001.3,0020.41,0015.17,0014.51
2023-01-04 19:59:00,,0823.2,5.00,0.00,22.5,21.5,00.0,31.2,24.3,09.2,-001.0,0019.87,0014.83,0014.18
